Skip Page Navigation
NASA JPL Caltech
NASA Logo - Jet Propulsion Laboratory + View the NASA Portal
+ Center for Near-Earth Object Studies
JPL Home Earth Solar System Stars & Galaxies Technology
JPL Solar System Dynamics
BODIES ORBITS EPHEMERIDES TOOLS PHYSICAL DATA DISCOVERY FAQ SITE MAP
IMPORTANT: The SSD Announcement email list is now available. Major changes are coming in the near future, including possible hostname and/or URL changes. To be notified of such changes, subscribe to this email list.

Please visit this page for more details.


JPL Small-Body Database Browser
Search: [ help ]  
80335 (1999 XG95)
Classification: Main-belt Asteroid          SPK-ID: 2080335
Ephemeris | Orbit Diagram | Orbital Elements | Mission Design | Physical Parameters | Discovery Circumstances | Close-Approach Data ]

[ show orbit diagram ]
Orbital Elements at Epoch 2458600.5 (2019-Apr-27.0) TDB
Reference: JPL 19 (heliocentric ecliptic J2000)
 Element Value Uncertainty (1-sigma)   Units 
e .20871079287174 4.8938e-08  
a 2.324383038166735 1.0833e-08 au
q 1.839259211333332 1.1313e-07 au
i 3.953780370716533 5.0836e-06 deg
node 307.2699112530748 7.9974e-05 deg
peri 117.6463647737462 8.1118e-05 deg
M 185.3336774318032 1.4602e-05 deg
tp 2459228.510130091684
(2021-Jan-14.01013009)
5.5235e-05 TDB
period 1294.374573809065
3.54
9.0486e-06
2.477e-08
d
yr
n .2781266005099264 1.9443e-09 deg/d
Q 2.809506865000138 1.3094e-08 au
  Orbit Determination Parameters
   # obs. used (total)      516  
   data-arc span      8251 days (22.59 yr)  
   first obs. used      1995-07-26  
   last obs. used      2018-02-26  
   planetary ephem.      DE431  
   SB-pert. ephem.      SB431-N16  
   condition code      0  
   norm. resid. RMS      .60012  
   source      ORB  
   producer      Otto Matic  
   solution date      2018-Mar-05 22:23:01  

Additional Information
 Earth MOID = .856591 au 
 Jupiter MOID = 2.51132 au 
 T_jup = 3.543 
[ show covariance matrix ]

Ephemeris | Orbit Diagram | Orbital Elements | Mission Design | Physical Parameters | Discovery Circumstances | Close-Approach Data ]

Physical Parameter Table
Parameter Symbol Value Units Sigma Reference Notes
absolute magnitude H 16.0   n/a MPO344861  

80335 (1999 XG95)          Discovered 1999-Dec-07 by Kobayashi, T. at Oizumi
Reference: 20040504/Numbers.arcLast Updated: 2004-07-16

[ show close-approach data ]
Alternate Designations
 1999 XG95 = 2002 PO135 
Ephemeris | Orbit Diagram | Orbital Elements | Mission Design | Physical Parameters | Discovery Circumstances | Close-Approach Data ]
ABOUT SSD CREDITS/AWARDS PRIVACY/COPYRIGHT GLOSSARY LINKS
FirstGov 2020-Jan-17 19:02 UT
(server date/time)  
NASA Home Page
Site Manager:   Ryan S. Park
Webmaster  Alan B. Chamberlin